Regional Weather Roundup
Issued by NWS

Home | Current Version | Previous Version | Graphics & Text | Print | Product List | Glossary On
Versions: 1 2 3 4 5 6 7 8 9 10 11 12 13 14 15 16 17 18 19 20 21 22 23 24 25 26 27 28 29 30 31 32 33 34 35 36 37 38 39 40 41 42 43 44 45 46 47 48 49 50
000
ASUS44 KMEG 042110
RWRTN
TENNESSEE HOURLY STATE WEATHER ROUNDUP
NATIONAL WEATHER SERVICE MEMPHIS TN
400 PM CDT FRI SEP 04 2015

TNZ002-004-019-021-049-052-054-088>092-042200-
WEST TENNESSEE

CITY           SKY/WX    TMP DP  RH WIND       PRES   REMARKS
MEMPHIS INTL   PTSUNNY   93  69  45 VRB3      29.97F HX  98
NWS MEMPHIS      N/A     91 N/A N/A MISG        N/A
JACKSON        FAIR      92  69  47 CALM      29.98F HX  97
DYERSBURG      FAIR      91  70  49 N3        29.99F HX  97
UNION CITY     SUNNY     91  64  40 CALM      29.97F HX  93
PARIS          SUNNY     90  66  45 NE5       30.01S HX  92
LEXINGTON      SUNNY     88  70  55 SW6       29.99F HX  92
$$

TNZ008-025-027-028-033-062-065-066-042200-
NORTH MIDDLE TENNESSEE

CITY           SKY/WX    TMP DP  RH WIND       PRES   REMARKS
NASHVILLE      FAIR      94  62  34 E6        29.99F HX  94
CLARKSVILLE    PTSUNNY   93  65  39 E7        29.99F HX  95
SMYRNA         FAIR      32  32 100 CALM      30.00F
COOKEVILLE     SUNNY     91  64  40 E6        30.02F HX  93
CROSSVILLE     FAIR      86  62  44 E6        30.08F
$$

TNZ061-075-076-078-094-096-097-042200-
SOUTH MIDDLE TENNESSEE

CITY           SKY/WX    TMP DP  RH WIND       PRES   REMARKS
FAYETTEVILLE     N/A     88  64  45 E3        30.02S
TULLAHOMA      SUNNY     90  64  43 N6        30.03F HX  91
WINCHESTER     MOSUNNY   84  72  65 E23G29    30.03R
MCMINNVILLE    SUNNY     91  72  52 N6        30.03S HX  98
COLUMBIA       MOSUNNY   93  68  43 NE6       29.99S HX  97
SHELBYVILLE    SUNNY     91  66  43 E6        30.01F HX  94
$$

TNZ017-018-042-046-047-042200-
NORTHEAST TENNESSEE

CITY           SKY/WX    TMP DP  RH WIND       PRES   REMARKS
TRI CITIES     FAIR      90  61  37 VRB3      30.03F HX  90
ELIZABETHTON   RAIN      82  66  57 W6        30.04F
$$

TNZ012-013-036-069-073-074-042200-
CENTRAL EAST TENNESSEE

CITY           SKY/WX    TMP DP  RH WIND       PRES   REMARKS
KNOXVILLE      FAIR      91  62  37 NE10      29.99F HX  91
OAK RIDGE      FAIR      92  63  38 VRB6      30.02F HX  93
GATLINBURG       N/A     91  57  31 N8        29.99F HX  90
MORRISTOWN     CLEAR     90  64  43 VRB6      30.04S HX  91
$$

TNZ083-085-099-042200-
SOUTHEAST TENNESSEE

CITY           SKY/WX    TMP DP  RH WIND       PRES   REMARKS
CHATTANOOGA    FAIR      92  67  43 N9        29.99F HX  95
$$

SKY/WX REPORTED AS FAIR MEANS FEW OR NO CLOUDS BELOW
12 THOUSAND FEET.




USA.gov is the U.S. government's official web portal to all federal, state and local government web resources and services.